Location: Brede
(50.9167°N, 0.6000°E)
Time: 02:16:25
(UTC+00:00)

Cosmos 44 Rocket - Pass Details

Date: 08 August 2020
Orbit: 647 x 743 km, 65.1° (Epoch: 19 September)

Event Time Altitude Azimuth Distance (km) Brightness Sun altitude
Rises 01:28:40 0° 313° (NW) 3,096 6.9 -20.5°
Reaches altitude 10° 01:31:14 10° 302° (WNW) 2,190 6.0 -20.3°
Enters shadow 01:34:57 28° 255° (WSW) 1,333 4.4 -20.1°
